Regional Weather Roundup
Issued by NWS

Home | Current Version | Previous Version | Text Only | Print | Product List | Glossary Off
Versions: 1 2 3 4 5 6 7 8 9 10 11 12 13 14 15 16 17 18 19 20 21 22 23 24 25 26 27 28 29 30 31 32 33 34 35 36 37 38 39 40 41 42 43 44 45 46 47 48 49 50

000
ASUS43 KLSX 011607
RWRMO

WEATHER SUMMARY FOR MISSOURI
NATIONAL WEATHER SERVICE SPRINGFIELD MO
1100 AM CDT SAT AUG 01 2015

NOTE: "FAIR" INDICATES FEW OR NO CLOUDS BELOW 12,000 FEET WITH NO
       SIGNIFICANT WEATHER AND/OR OBSTRUCTIONS TO VISIBILITY.
       CURRENT SKY AND/OR WEATHER CONDITIONS ARE NOT AVAILABLE FOR
       CHILLICOTHE AND FARMINGTON.

MOZ001>031-035>038-043-044-053-054-011700-
...NORTHERN AND WESTERN MISSOURI...

CITY           SKY/WX    TMP DP  RH WIND       PRES   REMARKS
KANSAS CTY INT PTSUNNY   85  75  72 W3        30.07S HX  93
KANSAS C DTWN  PTSUNNY   87  75  67 W9        30.06S HX  96
LEE`S SUMMIT   MOSUNNY   86  73  65 VRB6      30.08S HX  93
ST JOSEPH      SUNNY     84  75  74 W6        30.05F HX  92
CHILLICOTHE      N/A     84  72  67 CALM      30.06R
KIRKSVILLE     PTSUNNY   80  69  69 VRB7      30.07S

$$
MOZ066>068-077>081-088>096-101>105-011700-
...SOUTHWEST MISSOURI...

CITY           SKY/WX    TMP DP  RH WIND       PRES   REMARKS
SPRINGFIELD    SUNNY     85  62  46 W7        30.10S
JOPLIN         SUNNY     87  64  46 VRB5      30.10S

$$
MOZ032>034-039>042-045>050-055>058-069>072-011700-
...CENTRAL MISSOURI...

CITY           SKY/WX    TMP DP  RH WIND       PRES   REMARKS
COLUMBIA       PTSUNNY   81  70  69 CALM      30.08S
JEFFERSON CITY MOSUNNY   83  69  62 CALM      30.06S
ROLLA          SUNNY     84  71  65 W6        30.07F
SEDALIA        PTSUNNY   86  73  65 NW5       30.08F HX  93
WHITEMAN AFB   MOSUNNY   87  73  62 NW8       30.06S HX  93
WARRENSBURG    SUNNY     86  72  62 W8        30.06F HX  92
OSAGE BEACH    SUNNY     84  72  65 W5        30.08F

$$
MOZ051-052-059>065-011700-
...EAST CENTRAL MISSOURI...

CITY           SKY/WX    TMP DP  RH WIND       PRES   REMARKS
ST LOUIS INTL  PTSUNNY   84  60  44 E7        30.08S
SPIRIT OF STL  MOSUNNY   82  66  58 E6        30.06S
ST CHARLES     MOSUNNY   81  66  60 S7        30.06S

$$
MOZ072>076-082>087-097>100-106>115-011700-
...SOUTH CENTRAL AND SOUTHEAST MISSOURI...

CITY           SKY/WX    TMP DP  RH WIND       PRES   REMARKS
CAPE GIRARDEAU SUNNY     84  69  60 NE7       30.04S
FARMINGTON     SUNNY     82  70  65 NE5       30.12S
POPLAR BLUFF   SUNNY     88  69  53 N3        30.04R HX  92
WEST PLAINS    SUNNY     86  64  47 NW6       30.11S

$$



USA.gov is the U.S. government's official web portal to all federal, state and local government web resources and services.